owner,sensor,date,latitude,longitude,vertical_datum,sea_water_speed,direction_of_sea_water_velocity,upward_sea_water_velocity,qcFlag
BP,ioos:station:wmo:42369:4,2021-12-01T00:00:00Z,27.2135,-90.2783,1343.0,2.5,104.0,-9999.0,'111331111,111111111,999999991'
BP,ioos:station:wmo:42369:4,2021-12-01T00:20:00Z,27.2135,-90.2783,1343.0,1.9,115.2,-9999.0,'111331111,111111111,999999991'
BP,ioos:station:wmo:42369:4,2021-12-01T00:40:00Z,27.2135,-90.2781,1343.0,1.8,77.5,-9999.0,'111331111,111111111,999999991'
BP,ioos:station:wmo:42369:4,2021-12-01T01:00:00Z,27.2136,-90.2783,1343.0,1.2,55.0,-9999.0,'111331111,111111111,999999991'
BP,ioos:station:wmo:42369:4,2021-12-01T01:20:00Z,27.2137,-90.2784,1343.0,1.6,47.5,-9999.0,'111331111,111111111,999999991'
BP,ioos:station:wmo:42369:4,2021-12-01T01:40:00Z,27.2138,-90.2787,1343.0,1.6,71.6,-9999.0,'111331111,111111111,999999991'
BP,ioos:station:wmo:42369:4,2021-12-01T02:00:00Z,27.2139,-90.2788,1343.0,1.8,45.0,-9999.0,'111331111,111111111,999999991'
BP,ioos:station:wmo:42369:4,2021-12-01T02:20:00Z,27.2140,-90.2788,1343.0,1.5,19.7,-9999.0,'111331111,111111111,999999991'
BP,ioos:station:wmo:42369:4,2021-12-01T02:40:00Z,27.2140,-90.2788,1343.0,2.0,40.9,-9999.0,'111331111,111111111,999999991'
BP,ioos:station:wmo:42369:4,2021-12-01T03:00:00Z,27.2140,-90.2788,1343.0,1.9,53.7,-9999.0,'111331111,111111111,999999991'
BP,ioos:station:wmo:42369:4,2021-12-01T03:20:00Z,27.2141,-90.2788,1343.0,2.6,0.0,-9999.0,'111331111,111441111,999999991'
BP,ioos:station:wmo:42369:4,2021-12-01T03:40:00Z,27.2142,-90.2789,1343.0,3.1,356.3,-9999.0,'111111111,111111111,999999991'
BP,ioos:station:wmo:42369:4,2021-12-01T04:00:00Z,27.2142,-90.2790,1343.0,3.1,38.4,-9999.0,'111111111,111111111,999999991'
BP,ioos:station:wmo:42369:4,2021-12-01T04:20:00Z,27.2143,-90.2791,1343.0,1.6,21.8,-9999.0,'111331111,111111111,999999991'
BP,ioos:station:wmo:42369:4,2021-12-01T04:40:00Z,27.2143,-90.2791,1343.0,2.0,26.6,-9999.0,'111331111,111111111,999999991'
BP,ioos:station:wmo:42369:4,2021-12-01T05:00:00Z,27.2144,-90.2791,1343.0,2.9,43.6,-9999.0,'111331111,111111111,999999991'
BP,ioos:station:wmo:42369:4,2021-12-01T05:20:00Z,27.2143,-90.2791,1343.0,3.5,21.5,-9999.0,'111111111,111111111,999999991'
BP,ioos:station:wmo:42369:4,2021-12-01T05:40:00Z,27.2143,-90.2790,1343.0,4.0,20.7,-9999.0,'111111111,111111111,999999991'
BP,ioos:station:wmo:42369:4,2021-12-01T06:00:00Z,27.2144,-90.2789,1343.0,4.0,22.1,-9999.0,'111111111,111111111,999999991'
BP,ioos:station:wmo:42369:4,2021-12-01T06:40:00Z,27.2143,-90.2787,1343.0,3.9,22.6,-9999.0,'111111111,111111111,999999991'
BP,ioos:station:wmo:42369:4,2021-12-01T07:00:00Z,27.2142,-90.2783,1343.0,4.1,17.1,-9999.0,'111111111,111111111,999999991'
BP,ioos:station:wmo:42369:4,2021-12-01T07:20:00Z,27.2141,-90.2780,1343.0,3.5,20.0,-9999.0,'111111111,111111111,999999991'
BP,ioos:station:wmo:42369:4,2021-12-01T07:40:00Z,27.2139,-90.2776,1343.0,3.4,358.3,-9999.0,'111111111,111111111,999999991'
BP,ioos:station:wmo:42369:4,2021-12-01T08:00:00Z,27.2139,-90.2777,1343.0,2.7,10.5,-9999.0,'111331111,111111111,999999991'
BP,ioos:station:wmo:42369:4,2021-12-01T08:20:00Z,27.2138,-90.2776,1343.0,4.2,5.4,-9999.0,'111111111,111111111,999999991'
BP,ioos:station:wmo:42369:4,2021-12-01T08:40:00Z,27.2138,-90.2776,1343.0,4.1,5.6,-9999.0,'111111111,111111111,999999991'
BP,ioos:station:wmo:42369:4,2021-12-01T09:00:00Z,27.2139,-90.2775,1343.0,4.2,27.2,-9999.0,'111111111,111111111,999999991'
BP,ioos:station:wmo:42369:4,2021-12-01T09:20:00Z,27.2139,-90.2776,1343.0,5.5,16.8,-9999.0,'111111111,111111111,999999991'
BP,ioos:station:wmo:42369:4,2021-12-01T09:40:00Z,27.2140,-90.2777,1343.0,5.6,8.3,-9999.0,'111111111,111111111,999999991'
BP,ioos:station:wmo:42369:4,2021-12-01T10:00:00Z,27.2140,-90.2777,1343.0,6.0,7.7,-9999.0,'111111111,111111111,999999991'
BP,ioos:station:wmo:42369:4,2021-12-01T10:20:00Z,27.2142,-90.2779,1343.0,6.0,6.7,-9999.0,'111111111,111111111,999999991'
BP,ioos:station:wmo:42369:4,2021-12-01T10:40:00Z,27.2143,-90.2780,1343.0,7.0,19.2,-9999.0,'111111111,111111111,999999991'
BP,ioos:station:wmo:42369:4,2021-12-01T11:00:00Z,27.2143,-90.2780,1343.0,8.7,14.7,-9999.0,'111111111,111111111,999999991'
BP,ioos:station:wmo:42369:4,2021-12-01T11:20:00Z,27.2143,-90.2780,1343.0,7.5,22.8,-9999.0,'111111111,111111111,999999991'
BP,ioos:station:wmo:42369:4,2021-12-01T11:40:00Z,27.2143,-90.2778,1343.0,6.8,27.3,-9999.0,'111111111,111111111,999999991'
BP,ioos:station:wmo:42369:4,2021-12-01T12:00:00Z,27.2141,-90.2777,1343.0,7.7,26.9,-9999.0,'111111111,111111111,999999991'
BP,ioos:station:wmo:42369:4,2021-12-01T12:20:00Z,27.2138,-90.2774,1343.0,7.2,28.4,-9999.0,'111111111,111111111,999999991'
BP,ioos:station:wmo:42369:4,2021-12-01T12:40:00Z,27.2138,-90.2773,1343.0,6.5,20.7,-9999.0,'111111111,111111111,999999991'
BP,ioos:station:wmo:42369:4,2021-12-01T13:00:00Z,27.2137,-90.2773,1343.0,5.6,24.3,-9999.0,'111111111,111111111,999999991'
BP,ioos:station:wmo:42369:4,2021-12-01T13:20:00Z,27.2137,-90.2773,1343.0,5.4,27.5,-9999.0,'111111111,111111111,999999991'
BP,ioos:station:wmo:42369:4,2021-12-01T13:40:00Z,27.2137,-90.2772,1343.0,5.4,25.1,-9999.0,'111111111,111111111,999999991'
BP,ioos:station:wmo:42369:4,2021-12-01T14:00:00Z,27.2136,-90.2771,1343.0,6.5,17.0,-9999.0,'111111111,111111111,999999991'
BP,ioos:station:wmo:42369:4,2021-12-01T14:20:00Z,27.2136,-90.2771,1343.0,4.7,29.3,-9999.0,'111111111,111111111,999999991'
BP,ioos:station:wmo:42369:4,2021-12-01T14:40:00Z,27.2136,-90.2771,1343.0,5.0,26.1,-9999.0,'111111111,111111111,999999991'
BP,ioos:station:wmo:42369:4,2021-12-01T15:00:00Z,27.2135,-90.2773,1343.0,4.2,30.3,-9999.0,'111111111,111111111,999999991'
BP,ioos:station:wmo:42369:4,2021-12-01T15:20:00Z,27.2135,-90.2774,1343.0,4.8,20.7,-9999.0,'111111111,111111111,999999991'
BP,ioos:station:wmo:42369:4,2021-12-01T15:40:00Z,27.2135,-90.2774,1343.0,4.7,33.7,-9999.0,'111111111,111111111,999999991'
BP,ioos:station:wmo:42369:4,2021-12-01T16:00:00Z,27.2135,-90.2776,1343.0,3.7,46.1,-9999.0,'111111111,111111111,999999991'
BP,ioos:station:wmo:42369:4,2021-12-01T16:20:00Z,27.2135,-90.2776,1343.0,4.2,55.6,-9999.0,'111111111,111111111,999999991'
BP,ioos:station:wmo:42369:4,2021-12-01T16:40:00Z,27.2135,-90.2776,1343.0,4.5,59.5,-9999.0,'111111111,111111111,999999991'
BP,ioos:station:wmo:42369:4,2021-12-01T17:00:00Z,27.2135,-90.2777,1343.0,5.0,63.9,-9999.0,'111111111,111111111,999999991'
BP,ioos:station:wmo:42369:4,2021-12-01T17:20:00Z,27.2135,-90.2778,1343.0,4.6,69.6,-9999.0,'111111111,111111111,999999991'
BP,ioos:station:wmo:42369:4,2021-12-01T17:40:00Z,27.2135,-90.2779,1343.0,4.5,77.2,-9999.0,'111111111,111111111,999999991'
BP,ioos:station:wmo:42369:4,2021-12-01T18:00:00Z,27.2135,-90.2779,1343.0,5.7,78.9,-9999.0,'111111111,111111111,999999991'
BP,ioos:station:wmo:42369:4,2021-12-01T18:20:00Z,27.2135,-90.2781,1343.0,4.1,84.4,-9999.0,'111111111,111111111,999999991'
BP,ioos:station:wmo:42369:4,2021-12-01T18:40:00Z,27.2135,-90.2783,1343.0,2.5,76.0,-9999.0,'111331111,111111111,999999991'
BP,ioos:station:wmo:42369:4,2021-12-01T19:00:00Z,27.2135,-90.2783,1343.0,4.7,62.4,-9999.0,'111111111,111111111,999999991'
BP,ioos:station:wmo:42369:4,2021-12-01T19:20:00Z,27.2135,-90.2785,1343.0,3.7,69.6,-9999.0,'111111111,111111111,999999991'
BP,ioos:station:wmo:42369:4,2021-12-01T19:40:00Z,27.2135,-90.2785,1343.0,2.5,90.0,-9999.0,'111331111,111111111,999999991'
BP,ioos:station:wmo:42369:4,2021-12-01T20:00:00Z,27.2135,-90.2788,1343.0,2.0,72.5,-9999.0,'111331111,111111111,999999991'
BP,ioos:station:wmo:42369:4,2021-12-01T20:20:00Z,27.2135,-90.2789,1343.0,2.3,77.2,-9999.0,'111331111,111111111,999999991'
BP,ioos:station:wmo:42369:4,2021-12-01T20:40:00Z,27.2135,-90.2789,1343.0,1.3,45.0,-9999.0,'111331111,111111111,999999991'
BP,ioos:station:wmo:42369:4,2021-12-01T21:00:00Z,27.2135,-90.2791,1343.0,0.9,12.5,-9999.0,'111331111,111111111,999999991'
BP,ioos:station:wmo:42369:4,2021-12-01T21:20:00Z,27.2135,-90.2791,1343.0,1.2,14.0,-9999.0,'111331111,111111111,999999991'
BP,ioos:station:wmo:42369:4,2021-12-01T21:40:00Z,27.2135,-90.2790,1343.0,1.9,32.0,-9999.0,'111331111,111111111,999999991'
BP,ioos:station:wmo:42369:4,2021-12-01T22:00:00Z,27.2135,-90.2790,1343.0,3.4,47.4,-9999.0,'111111111,111111111,999999991'
BP,ioos:station:wmo:42369:4,2021-12-01T22:20:00Z,27.2135,-90.2790,1343.0,2.7,55.7,-9999.0,'111331111,111111111,999999991'
BP,ioos:station:wmo:42369:4,2021-12-01T22:40:00Z,27.2135,-90.2790,1343.0,2.1,70.7,-9999.0,'111331111,111111111,999999991'
BP,ioos:station:wmo:42369:4,2021-12-01T23:00:00Z,27.2135,-90.2790,1343.0,3.1,75.1,-9999.0,'111111111,111111111,999999991'
BP,ioos:station:wmo:42369:4,2021-12-01T23:20:00Z,27.2134,-90.2791,1343.0,3.1,91.8,-9999.0,'111111111,111111111,999999991'
BP,ioos:station:wmo:42369:4,2021-12-01T23:40:00Z,27.2134,-90.2792,1343.0,3.9,95.9,-9999.0,'111111111,111111111,999999991'
BP,ioos:station:wmo:42369:4,2021-12-02T00:00:00Z,27.2135,-90.2792,1343.0,3.9,108.0,-9999.0,'111111111,111111111,999999991'
BP,ioos:station:wmo:42369:4,2021-12-02T00:20:00Z,27.2135,-90.2793,1343.0,3.5,93.3,-9999.0,'111111111,111111111,999999991'
BP,ioos:station:wmo:42369:4,2021-12-02T00:40:00Z,27.2135,-90.2793,1343.0,2.6,90.0,-9999.0,'111331111,111111111,999999991'
BP,ioos:station:wmo:42369:4,2021-12-02T01:00:00Z,27.2136,-90.2793,1343.0,2.2,92.6,-9999.0,'111331111,111111111,999999991'
BP,ioos:station:wmo:42369:4,2021-12-02T01:20:00Z,27.2136,-90.2793,1343.0,2.5,90.0,-9999.0,'111331111,111111111,999999991'
BP,ioos:station:wmo:42369:4,2021-12-02T01:40:00Z,27.2136,-90.2794,1343.0,0.4,236.3,-9999.0,'111331111,111111111,999999991'
BP,ioos:station:wmo:42369:4,2021-12-02T02:00:00Z,27.2136,-90.2794,1343.0,1.8,160.6,-9999.0,'111331111,111111111,999999991'
BP,ioos:station:wmo:42369:4,2021-12-02T02:20:00Z,27.2136,-90.2795,1343.0,2.0,174.3,-9999.0,'111331111,111111111,999999991'
BP,ioos:station:wmo:42369:4,2021-12-02T02:40:00Z,27.2135,-90.2794,1343.0,2.2,201.8,-9999.0,'111331111,111111111,999999991'
BP,ioos:station:wmo:42369:4,2021-12-02T03:00:00Z,27.2135,-90.2793,1343.0,1.5,187.6,-9999.0,'111331111,111111111,999999991'
BP,ioos:station:wmo:42369:4,2021-12-02T03:20:00Z,27.2135,-90.2789,1343.0,1.2,184.8,-9999.0,'111331111,111111111,999999991'
BP,ioos:station:wmo:42369:4,2021-12-02T03:40:00Z,27.2134,-90.2787,1343.0,2.0,149.5,-9999.0,'111331111,111111111,999999991'
BP,ioos:station:wmo:42369:4,2021-12-02T04:00:00Z,27.2133,-90.2785,1343.0,2.5,180.0,-9999.0,'111331111,111111111,999999991'
BP,ioos:station:wmo:42369:4,2021-12-02T04:20:00Z,27.2134,-90.2785,1343.0,2.0,180.0,-9999.0,'111331111,111111111,999999991'
BP,ioos:station:wmo:42369:4,2021-12-02T04:40:00Z,27.2133,-90.2785,1343.0,1.7,162.6,-9999.0,'111331111,111111111,999999991'
BP,ioos:station:wmo:42369:4,2021-12-02T05:00:00Z,27.2133,-90.2785,1343.0,0.6,239.0,-9999.0,'111331111,111111111,999999991'
BP,ioos:station:wmo:42369:4,2021-12-02T05:20:00Z,27.2134,-90.2785,1343.0,0.6,180.0,-9999.0,'111331111,111111111,999999991'
BP,ioos:station:wmo:42369:4,2021-12-02T05:40:00Z,27.2134,-90.2785,1343.0,0.5,111.8,-9999.0,'111331111,111111111,999999991'
BP,ioos:station:wmo:42369:4,2021-12-02T06:00:00Z,27.2134,-90.2783,1343.0,0.4,315.0,-9999.0,'111331111,111111111,999999991'
BP,ioos:station:wmo:42369:4,2021-12-02T06:20:00Z,27.2133,-90.2782,1343.0,1.6,330.3,-9999.0,'111331111,111111111,999999991'
BP,ioos:station:wmo:42369:4,2021-12-02T06:40:00Z,27.2133,-90.2781,1343.0,1.3,48.0,-9999.0,'111331111,111111111,999999991'
BP,ioos:station:wmo:42369:4,2021-12-02T07:00:00Z,27.2133,-90.2780,1343.0,2.4,38.3,-9999.0,'111331111,111111111,999999991'
BP,ioos:station:wmo:42369:4,2021-12-02T07:20:00Z,27.2132,-90.2778,1343.0,2.7,15.1,-9999.0,'111331111,111111111,999999991'
BP,ioos:station:wmo:42369:4,2021-12-02T07:40:00Z,27.2132,-90.2777,1343.0,3.6,37.2,-9999.0,'111111111,111111111,999999991'
BP,ioos:station:wmo:42369:4,2021-12-02T08:00:00Z,27.2132,-90.2777,1343.0,3.1,29.1,-9999.0,'111111111,111111111,999999991'
BP,ioos:station:wmo:42369:4,2021-12-02T08:20:00Z,27.2132,-90.2776,1343.0,2.3,357.5,-9999.0,'111331111,111111111,999999991'
BP,ioos:station:wmo:42369:4,2021-12-02T08:40:00Z,27.2132,-90.2776,1343.0,2.7,13.0,-9999.0,'111331111,111111111,999999991'
BP,ioos:station:wmo:42369:4,2021-12-02T09:00:00Z,27.2133,-90.2776,1343.0,2.4,343.1,-9999.0,'111331111,111111111,999999991'
BP,ioos:station:wmo:42369:4,2021-12-02T09:20:00Z,27.2133,-90.2776,1343.0,3.8,13.7,-9999.0,'111111111,111111111,999999991'
BP,ioos:station:wmo:42369:4,2021-12-02T09:40:00Z,27.2133,-90.2776,1343.0,3.4,19.0,-9999.0,'111111111,111111111,999999991'
BP,ioos:station:wmo:42369:4,2021-12-02T10:00:00Z,27.2134,-90.2777,1343.0,2.7,4.2,-9999.0,'111331111,111111111,999999991'
BP,ioos:station:wmo:42369:4,2021-12-02T10:20:00Z,27.2136,-90.2779,1343.0,3.3,17.9,-9999.0,'111111111,111111111,999999991'
BP,ioos:station:wmo:42369:4,2021-12-02T10:40:00Z,27.2136,-90.2779,1343.0,2.4,33.0,-9999.0,'111331111,111111111,999999991'
BP,ioos:station:wmo:42369:4,2021-12-02T11:00:00Z,27.2136,-90.2779,1343.0,3.3,42.5,-9999.0,'111111111,111111111,999999991'
BP,ioos:station:wmo:42369:4,2021-12-02T11:20:00Z,27.2134,-90.2777,1343.0,4.0,47.0,-9999.0,'111111111,111111111,999999991'
BP,ioos:station:wmo:42369:4,2021-12-02T11:40:00Z,27.2134,-90.2777,1343.0,3.4,67.2,-9999.0,'111111111,111111111,999999991'
BP,ioos:station:wmo:42369:4,2021-12-02T12:00:00Z,27.2134,-90.2777,1343.0,3.2,84.6,-9999.0,'111111111,111111111,999999991'
BP,ioos:station:wmo:42369:4,2021-12-02T12:20:00Z,27.2134,-90.2777,1343.0,2.6,60.5,-9999.0,'111331111,111111111,999999991'
BP,ioos:station:wmo:42369:4,2021-12-02T12:40:00Z,27.2134,-90.2777,1343.0,2.6,74.4,-9999.0,'111331111,111111111,999999991'
BP,ioos:station:wmo:42369:4,2021-12-02T13:00:00Z,27.2135,-90.2778,1343.0,1.8,77.5,-9999.0,'111331111,111111111,999999991'
BP,ioos:station:wmo:42369:4,2021-12-02T13:20:00Z,27.2135,-90.2779,1343.0,1.8,16.4,-9999.0,'111331111,111111111,999999991'
BP,ioos:station:wmo:42369:4,2021-12-02T13:40:00Z,27.2135,-90.2780,1343.0,1.4,4.1,-9999.0,'111331111,111111111,999999991'
BP,ioos:station:wmo:42369:4,2021-12-02T14:00:00Z,27.2136,-90.2781,1343.0,2.3,9.9,-9999.0,'111331111,111111111,999999991'
BP,ioos:station:wmo:42369:4,2021-12-02T14:20:00Z,27.2136,-90.2783,1343.0,2.6,342.3,-9999.0,'111331111,111111111,999999991'
BP,ioos:station:wmo:42369:4,2021-12-02T14:40:00Z,27.2137,-90.2785,1343.0,1.0,315.0,-9999.0,'111331111,111111111,999999991'
BP,ioos:station:wmo:42369:4,2021-12-02T15:00:00Z,27.2137,-90.2786,1343.0,0.5,270.0,-9999.0,'111331111,111111111,999999991'
BP,ioos:station:wmo:42369:4,2021-12-02T15:20:00Z,27.2138,-90.2790,1343.0,1.4,252.9,-9999.0,'111331111,111111111,999999991'
BP,ioos:station:wmo:42369:4,2021-12-02T15:40:00Z,27.2138,-90.2790,1343.0,1.9,242.1,-9999.0,'111331111,111111111,999999991'
BP,ioos:station:wmo:42369:4,2021-12-02T16:00:00Z,27.2139,-90.2793,1343.0,1.4,210.3,-9999.0,'111331111,111111111,999999991'
BP,ioos:station:wmo:42369:4,2021-12-02T16:20:00Z,27.2139,-90.2794,1343.0,1.2,250.0,-9999.0,'111331111,111111111,999999991'
BP,ioos:station:wmo:42369:4,2021-12-02T16:40:00Z,27.2139,-90.2795,1343.0,1.1,270.0,-9999.0,'111331111,111111111,999999991'
BP,ioos:station:wmo:42369:4,2021-12-02T17:00:00Z,27.2139,-90.2796,1343.0,1.5,306.9,-9999.0,'111331111,111111111,999999991'
BP,ioos:station:wmo:42369:4,2021-12-02T17:20:00Z,27.2138,-90.2794,1343.0,1.1,311.2,-9999.0,'111331111,111111111,999999991'
BP,ioos:station:wmo:42369:4,2021-12-02T17:40:00Z,27.2138,-90.2792,1343.0,2.0,272.9,-9999.0,'111331111,111111111,999999991'
BP,ioos:station:wmo:42369:4,2021-12-02T18:00:00Z,27.2138,-90.2791,1343.0,1.2,274.8,-9999.0,'111331111,111111111,999999991'
BP,ioos:station:wmo:42369:4,2021-12-02T18:20:00Z,27.2139,-90.2791,1343.0,2.0,323.1,-9999.0,'111331111,111111111,999999991'
BP,ioos:station:wmo:42369:4,2021-12-02T18:40:00Z,27.2139,-90.2791,1343.0,1.0,336.0,-9999.0,'111331111,111111111,999999991'
BP,ioos:station:wmo:42369:4,2021-12-02T19:00:00Z,27.2139,-90.2791,1343.0,1.4,355.9,-9999.0,'111331111,111111111,999999991'
BP,ioos:station:wmo:42369:4,2021-12-02T19:20:00Z,27.2139,-90.2791,1343.0,0.9,35.5,-9999.0,'111331111,111111111,999999991'
BP,ioos:station:wmo:42369:4,2021-12-02T19:40:00Z,27.2139,-90.2791,1343.0,1.1,63.4,-9999.0,'111331111,111111111,999999991'
BP,ioos:station:wmo:42369:4,2021-12-02T20:00:00Z,27.2139,-90.2790,1343.0,0.2,90.0,-9999.0,'111331111,111111111,999999991'
BP,ioos:station:wmo:42369:4,2021-12-02T20:20:00Z,27.2139,-90.2790,1343.0,1.2,121.0,-9999.0,'111331111,111111111,999999991'
BP,ioos:station:wmo:42369:4,2021-12-02T20:40:00Z,27.2140,-90.2789,1343.0,1.8,83.7,-9999.0,'111331111,111111111,999999991'
BP,ioos:station:wmo:42369:4,2021-12-02T21:00:00Z,27.2139,-90.2789,1343.0,2.4,75.4,-9999.0,'111331111,111111111,999999991'
BP,ioos:station:wmo:42369:4,2021-12-02T21:20:00Z,27.2139,-90.2788,1343.0,1.2,65.6,-9999.0,'111331111,111111111,999999991'
BP,ioos:station:wmo:42369:4,2021-12-02T21:40:00Z,27.2139,-90.2788,1343.0,1.6,97.1,-9999.0,'111331111,111111111,999999991'
BP,ioos:station:wmo:42369:4,2021-12-02T22:00:00Z,27.2139,-90.2789,1343.0,0.7,90.0,-9999.0,'111331111,111111111,999999991'
BP,ioos:station:wmo:42369:4,2021-12-02T22:20:00Z,27.2139,-90.2789,1343.0,2.5,161.6,-9999.0,'111331111,111111111,999999991'
BP,ioos:station:wmo:42369:4,2021-12-02T22:40:00Z,27.2139,-90.2789,1343.0,2.0,168.7,-9999.0,'111331111,111111111,999999991'
BP,ioos:station:wmo:42369:4,2021-12-02T23:00:00Z,27.2139,-90.2789,1343.0,2.6,180.0,-9999.0,'111331111,111111111,999999991'
BP,ioos:station:wmo:42369:4,2021-12-02T23:20:00Z,27.2139,-90.2789,1343.0,2.5,146.3,-9999.0,'111331111,111111111,999999991'
BP,ioos:station:wmo:42369:4,2021-12-02T23:40:00Z,27.2139,-90.2790,1343.0,1.7,166.8,-9999.0,'111331111,111111111,999999991'
BP,ioos:station:wmo:42369:4,2021-12-03T00:00:00Z,27.2139,-90.2790,1343.0,2.9,200.3,-9999.0,'111331111,111111111,999999991'
BP,ioos:station:wmo:42369:4,2021-12-03T00:20:00Z,27.2139,-90.2791,1343.0,2.8,198.4,-9999.0,'111331111,111111111,999999991'
BP,ioos:station:wmo:42369:4,2021-12-03T00:40:00Z,27.2139,-90.2791,1343.0,2.3,189.9,-9999.0,'111331111,111111111,999999991'
BP,ioos:station:wmo:42369:4,2021-12-03T01:00:00Z,27.2139,-90.2792,1343.0,1.6,194.9,-9999.0,'111331111,111111111,999999991'
BP,ioos:station:wmo:42369:4,2021-12-03T01:20:00Z,27.2139,-90.2792,1343.0,3.0,183.8,-9999.0,'111111111,111111111,999999991'
BP,ioos:station:wmo:42369:4,2021-12-03T01:40:00Z,27.2139,-90.2792,1343.0,3.4,197.4,-9999.0,'111111111,111111111,999999991'
BP,ioos:station:wmo:42369:4,2021-12-03T02:00:00Z,27.2139,-90.2792,1343.0,2.9,209.2,-9999.0,'111331111,111111111,999999991'
BP,ioos:station:wmo:42369:4,2021-12-03T02:20:00Z,27.2140,-90.2793,1343.0,3.4,220.2,-9999.0,'111111111,111111111,999999991'
BP,ioos:station:wmo:42369:4,2021-12-03T02:40:00Z,27.2140,-90.2794,1343.0,3.3,225.0,-9999.0,'111111111,111111111,999999991'
BP,ioos:station:wmo:42369:4,2021-12-03T03:00:00Z,27.2141,-90.2794,1343.0,2.7,225.0,-9999.0,'111331111,111111111,999999991'
BP,ioos:station:wmo:42369:4,2021-12-03T03:20:00Z,27.2141,-90.2794,1343.0,3.0,212.6,-9999.0,'111331111,111111111,999999991'
BP,ioos:station:wmo:42369:4,2021-12-03T03:40:00Z,27.2142,-90.2794,1343.0,2.2,226.8,-9999.0,'111331111,111111111,999999991'
BP,ioos:station:wmo:42369:4,2021-12-03T04:00:00Z,27.2142,-90.2794,1343.0,1.6,217.6,-9999.0,'111331111,111111111,999999991'
BP,ioos:station:wmo:42369:4,2021-12-03T04:20:00Z,27.2142,-90.2794,1343.0,1.6,180.0,-9999.0,'111331111,111111111,999999991'
BP,ioos:station:wmo:42369:4,2021-12-03T04:40:00Z,27.2142,-90.2794,1343.0,1.3,202.6,-9999.0,'111331111,111111111,999999991'
BP,ioos:station:wmo:42369:4,2021-12-03T05:00:00Z,27.2142,-90.2795,1343.0,1.4,225.0,-9999.0,'111331111,111111111,999999991'
BP,ioos:station:wmo:42369:4,2021-12-03T05:20:00Z,27.2142,-90.2796,1343.0,2.9,223.6,-9999.0,'111331111,111111111,999999991'
BP,ioos:station:wmo:42369:4,2021-12-03T05:40:00Z,27.2142,-90.2796,1343.0,2.1,217.4,-9999.0,'111331111,111111111,999999991'
BP,ioos:station:wmo:42369:4,2021-12-03T06:00:00Z,27.2143,-90.2796,1343.0,2.8,222.1,-9999.0,'111331111,111111111,999999991'
BP,ioos:station:wmo:42369:4,2021-12-03T06:20:00Z,27.2143,-90.2796,1343.0,2.5,211.8,-9999.0,'111331111,111111111,999999991'
BP,ioos:station:wmo:42369:4,2021-12-03T06:40:00Z,27.2142,-90.2794,1343.0,2.4,228.4,-9999.0,'111331111,111111111,999999991'
BP,ioos:station:wmo:42369:4,2021-12-03T07:00:00Z,27.2142,-90.2793,1343.0,2.6,240.5,-9999.0,'111331111,111111111,999999991'
BP,ioos:station:wmo:42369:4,2021-12-03T07:20:00Z,27.2142,-90.2793,1343.0,1.2,250.0,-9999.0,'111331111,111111111,999999991'
BP,ioos:station:wmo:42369:4,2021-12-03T07:40:00Z,27.2143,-90.2792,1343.0,2.0,212.9,-9999.0,'111331111,111111111,999999991'
BP,ioos:station:wmo:42369:4,2021-12-03T08:00:00Z,27.2143,-90.2792,1343.0,2.1,209.1,-9999.0,'111331111,111111111,999999991'
BP,ioos:station:wmo:42369:4,2021-12-03T08:20:00Z,27.2143,-90.2792,1343.0,1.8,186.3,-9999.0,'111331111,111111111,999999991'
BP,ioos:station:wmo:42369:4,2021-12-03T08:40:00Z,27.2143,-90.2792,1343.0,1.9,207.9,-9999.0,'111331111,111111111,999999991'
BP,ioos:station:wmo:42369:4,2021-12-03T09:00:00Z,27.2143,-90.2793,1343.0,0.8,209.7,-9999.0,'111331111,111111111,999999991'
BP,ioos:station:wmo:42369:4,2021-12-03T09:20:00Z,27.2143,-90.2790,1343.0,0.8,240.3,-9999.0,'111331111,111111111,999999991'
BP,ioos:station:wmo:42369:4,2021-12-03T09:40:00Z,27.2142,-90.2787,1343.0,2.5,244.4,-9999.0,'111331111,111111111,999999991'
BP,ioos:station:wmo:42369:4,2021-12-03T10:00:00Z,27.2142,-90.2787,1343.0,3.3,259.4,-9999.0,'111111111,111111111,999999991'
BP,ioos:station:wmo:42369:4,2021-12-03T10:20:00Z,27.2141,-90.2785,1343.0,2.7,236.9,-9999.0,'111331111,111111111,999999991'
BP,ioos:station:wmo:42369:4,2021-12-03T10:40:00Z,27.2141,-90.2785,1343.0,3.2,259.0,-9999.0,'111111111,111111111,999999991'
BP,ioos:station:wmo:42369:4,2021-12-03T11:00:00Z,27.2141,-90.2784,1343.0,2.9,287.8,-9999.0,'111331111,111111111,999999991'
BP,ioos:station:wmo:42369:4,2021-12-03T11:20:00Z,27.2141,-90.2784,1343.0,2.0,275.7,-9999.0,'111331111,111111111,999999991'
BP,ioos:station:wmo:42369:4,2021-12-03T11:40:00Z,27.2140,-90.2784,1343.0,2.2,280.3,-9999.0,'111331111,111111111,999999991'
BP,ioos:station:wmo:42369:4,2021-12-03T12:00:00Z,27.2140,-90.2784,1343.0,2.1,324.8,-9999.0,'111331111,111111111,999999991'
BP,ioos:station:wmo:42369:4,2021-12-03T12:20:00Z,27.2140,-90.2785,1343.0,2.2,300.1,-9999.0,'111331111,111111111,999999991'
BP,ioos:station:wmo:42369:4,2021-12-03T12:40:00Z,27.2141,-90.2785,1343.0,1.7,339.4,-9999.0,'111331111,111111111,999999991'
BP,ioos:station:wmo:42369:4,2021-12-03T13:00:00Z,27.2141,-90.2786,1343.0,2.6,2.2,-9999.0,'111331111,111111111,999999991'
BP,ioos:station:wmo:42369:4,2021-12-03T13:20:00Z,27.2141,-90.2786,1343.0,2.0,348.7,-9999.0,'111331111,111111111,999999991'
BP,ioos:station:wmo:42369:4,2021-12-03T13:40:00Z,27.2140,-90.2786,1343.0,2.0,14.7,-9999.0,'111331111,111111111,999999991'
BP,ioos:station:wmo:42369:4,2021-12-03T14:00:00Z,27.2140,-90.2786,1343.0,0.5,53.1,-9999.0,'111331111,111111111,999999991'
BP,ioos:station:wmo:42369:4,2021-12-03T14:20:00Z,27.2140,-90.2787,1343.0,1.6,284.9,-9999.0,'111331111,111111111,999999991'
BP,ioos:station:wmo:42369:4,2021-12-03T14:40:00Z,27.2140,-90.2787,1343.0,2.3,325.6,-9999.0,'111331111,111111111,999999991'
BP,ioos:station:wmo:42369:4,2021-12-03T15:00:00Z,27.2140,-90.2787,1343.0,1.9,312.9,-9999.0,'111331111,111111111,999999991'
BP,ioos:station:wmo:42369:4,2021-12-03T15:20:00Z,27.2140,-90.2787,1343.0,2.1,309.1,-9999.0,'111331111,111111111,999999991'
BP,ioos:station:wmo:42369:4,2021-12-03T15:40:00Z,27.2140,-90.2787,1343.0,1.8,289.4,-9999.0,'111331111,111111111,999999991'
BP,ioos:station:wmo:42369:4,2021-12-03T16:00:00Z,27.2140,-90.2787,1343.0,0.7,254.1,-9999.0,'111331111,111111111,999999991'
BP,ioos:station:wmo:42369:4,2021-12-03T16:20:00Z,27.2141,-90.2788,1343.0,0.8,256.0,-9999.0,'111331111,111111111,999999991'